• Em Portugal
  • Lista de países
  • Para 7 dias
  • Temperatura da água
  • Mapas de satélite
  • Mapa do tempo
  • Widgets de tempo
  • user-avatar
    Iniciar Sessão

    Previsão horária em Totonicapán

    Hoje, 20 Outubro, Sexta-feira

    Tempo Temperatura Precipitação Vento Pressão Humidade
    00:00 +10°C° 0 mm 1 m/s 554 mmHg 88%
    01:00 +9°C° 0,1 mm 1 m/s 554 mmHg 87%
    02:00 +9°C° 0,1 mm 1 m/s 554 mmHg 87%
    03:00 +9°C° 0,1 mm 1 m/s 554 mmHg 86%
    04:00 +9°C° 0 mm 1 m/s 554 mmHg 86%
    05:00 +9°C° 0 mm 1 m/s 554 mmHg 86%
    06:00 +9°C° 0 mm 1 m/s 554 mmHg 86%
    07:00 +12°C° 0 mm 1 m/s 555 mmHg 80%
    08:00 +14°C° 0 mm 1 m/s 556 mmHg 74%
    09:00 +16°C° 0 mm 1 m/s 558 mmHg 68%
    10:00 +16°C° 0,1 mm 2 m/s 558 mmHg 66%
    11:00 +17°C° 0,1 mm 2 m/s 558 mmHg 65%
    12:00 +18°C° 0,1 mm 2 m/s 558 mmHg 64%
    13:00 +17°C° 0,9 mm 2 m/s 557 mmHg 68%
    14:00 +17°C° 0,9 mm 2 m/s 556 mmHg 72%
    15:00 +16°C° 0,9 mm 2 m/s 555 mmHg 75%
    16:00 +15°C° 0,7 mm 2 m/s 555 mmHg 81%
    17:00 +13°C° 0,7 mm 1 m/s 554 mmHg 86%
    18:00 +12°C° 0,7 mm 1 m/s 554 mmHg 91%
    19:00 +12°C° 0,4 mm 1 m/s 554 mmHg 91%
    20:00 +11°C° 0,4 mm 1 m/s 554 mmHg 91%
    21:00 +11°C° 0,4 mm 1 m/s 555 mmHg 91%
    22:00 +11°C° 0,3 mm 1 m/s 555 mmHg 90%
    23:00 +10°C° 0,3 mm 1 m/s 554 mmHg 89%

    Amanhã, 21 Outubro, Sábado

    Tempo Temperatura Precipitação Vento Pressão Humidade
    00:00 +10°C° 0,3 mm 1 m/s 554 mmHg 88%
    01:00 +10°C° 0,1 mm 1 m/s 554 mmHg 88%
    02:00 +10°C° 0,1 mm 1 m/s 553 mmHg 87%
    03:00 +10°C° 0,1 mm 1 m/s 553 mmHg 86%
    04:00 +10°C° 0,1 mm 1 m/s 553 mmHg 86%
    05:00 +9°C° 0,1 mm 1 m/s 553 mmHg 85%
    06:00 +9°C° 0,1 mm 1 m/s 553 mmHg 85%
    07:00 +12°C° 0 mm 1 m/s 555 mmHg 79%
    08:00 +14°C° 0 mm 1 m/s 556 mmHg 73%
    09:00 +16°C° 0 mm 1 m/s 558 mmHg 67%
    10:00 +17°C° 0 mm 2 m/s 558 mmHg 65%
    11:00 +17°C° 0 mm 2 m/s 558 mmHg 63%
    12:00 +18°C° 0 mm 2 m/s 558 mmHg 60%
    13:00 +18°C° 0,8 mm 2 m/s 557 mmHg 66%
    14:00 +17°C° 0,8 mm 2 m/s 556 mmHg 71%
    15:00 +16°C° 0,8 mm 2 m/s 555 mmHg 77%
    16:00 +15°C° 1,3 mm 2 m/s 555 mmHg 82%
    17:00 +13°C° 1,3 mm 1 m/s 554 mmHg 87%
    18:00 +12°C° 1,3 mm 1 m/s 554 mmHg 93%
    19:00 +11°C° 1 mm 1 m/s 554 mmHg 93%
    20:00 +11°C° 1 mm 1 m/s 555 mmHg 93%
    21:00 +11°C° 1 mm 1 m/s 555 mmHg 93%
    22:00 +11°C° 1 mm 1 m/s 555 mmHg 92%
    23:00 +10°C° 1 mm 1 m/s 555 mmHg 92%

    Depois de amanhã, 22 Outubro, Domingo

    Tempo Temperatura Precipitação Vento Pressão Humidade
    00:00 +10°C° 1 mm 1 m/s 555 mmHg 91%
    01:00 +10°C° 1,1 mm 1 m/s 554 mmHg 91%
    02:00 +10°C° 1,1 mm 1 m/s 554 mmHg 90%
    03:00 +10°C° 1,1 mm 1 m/s 553 mmHg 89%
    04:00 +10°C° 0,7 mm 1 m/s 554 mmHg 89%
    05:00 +10°C° 0,7 mm 1 m/s 554 mmHg 88%
    06:00 +10°C° 0,7 mm 1 m/s 554 mmHg 88%
    07:00 +11°C° 0,6 mm 1 m/s 555 mmHg 85%
    08:00 +12°C° 0,6 mm 1 m/s 556 mmHg 83%
    09:00 +13°C° 0,6 mm 1 m/s 557 mmHg 81%
    10:00 +14°C° 0,7 mm 1 m/s 557 mmHg 79%
    11:00 +15°C° 0,7 mm 1 m/s 557 mmHg 78%
    12:00 +16°C° 0,7 mm 1 m/s 557 mmHg 77%
    13:00 +15°C° 1,3 mm 1 m/s 556 mmHg 79%
    14:00 +15°C° 1,3 mm 1 m/s 556 mmHg 82%
    15:00 +15°C° 1,3 mm 1 m/s 555 mmHg 85%
    16:00 +14°C° 2 mm 1 m/s 555 mmHg 88%
    17:00 +13°C° 2 mm 1 m/s 555 mmHg 91%
    18:00 +12°C° 2 mm 1 m/s 554 mmHg 94%
    19:00 +12°C° 2,1 mm 1 m/s 555 mmHg 94%
    20:00 +11°C° 2,1 mm 1 m/s 555 mmHg 94%
    21:00 +11°C° 2,1 mm 1 m/s 556 mmHg 94%
    22:00 +11°C° 1,6 mm 1 m/s 555 mmHg 94%
    23:00 +11°C° 1,6 mm 1 m/s 555 mmHg 93%

    23 Outubro, Segunda-feira

    Tempo Temperatura Precipitação Vento Pressão Humidade
    00:00 +11°C° 1,6 mm 1 m/s 555 mmHg 93%
    01:00 +10°C° 1,1 mm 1 m/s 554 mmHg 92%
    02:00 +10°C° 1,1 mm 1 m/s 554 mmHg 91%
    03:00 +10°C° 1,1 mm 1 m/s 553 mmHg 89%
    04:00 +10°C° 1,1 mm 1 m/s 553 mmHg 89%
    05:00 +10°C° 1,1 mm 1 m/s 554 mmHg 88%
    06:00 +10°C° 1,1 mm 1 m/s 554 mmHg 87%
    07:00 +11°C° 1,1 mm 1 m/s 555 mmHg 86%
    08:00 +11°C° 1,1 mm 1 m/s 555 mmHg 85%
    09:00 +12°C° 1,1 mm 1 m/s 556 mmHg 84%
    10:00 +13°C° 1,1 mm 1 m/s 556 mmHg 81%
    11:00 +14°C° 1,1 mm 1 m/s 556 mmHg 79%
    12:00 +14°C° 1,1 mm 1 m/s 556 mmHg 77%
    13:00 +14°C° 1,3 mm 1 m/s 556 mmHg 79%
    14:00 +14°C° 1,3 mm 1 m/s 555 mmHg 80%
    15:00 +14°C° 1,3 mm 1 m/s 555 mmHg 82%
    16:00 +13°C° 1 mm 1 m/s 554 mmHg 85%
    17:00 +12°C° 1 mm 1 m/s 554 mmHg 88%
    18:00 +11°C° 1 mm 1 m/s 554 mmHg 91%
    19:00 +11°C° 1 mm 1 m/s 554 mmHg 90%
    20:00 +11°C° 1 mm 1 m/s 555 mmHg 90%
    21:00 +11°C° 1 mm 1 m/s 555 mmHg 89%
    22:00 +10°C° 1,3 mm 1 m/s 555 mmHg 90%
    23:00 +10°C° 1,3 mm 1 m/s 554 mmHg 91%

    24 Outubro, Terça-feira

    Tempo Temperatura Precipitação Vento Pressão Humidade
    00:00 +10°C° 1,3 mm 1 m/s 554 mmHg 91%
    01:00 +10°C° 1 mm 1 m/s 554 mmHg 91%
    02:00 +10°C° 1 mm 1 m/s 554 mmHg 90%
    03:00 +10°C° 1 mm 1 m/s 553 mmHg 89%
    04:00 +10°C° 1,5 mm 1 m/s 554 mmHg 89%
    05:00 +10°C° 1,5 mm 1 m/s 554 mmHg 89%
    06:00 +10°C° 1,5 mm 1 m/s 554 mmHg 89%
    07:00 +11°C° 1,4 mm 1 m/s 555 mmHg 88%
    08:00 +11°C° 1,4 mm 1 m/s 555 mmHg 88%
    09:00 +12°C° 1,4 mm 1 m/s 556 mmHg 87%
    10:00 +12°C° 1,3 mm 1 m/s 556 mmHg 85%
    11:00 +13°C° 1,3 mm 1 m/s 556 mmHg 83%
    12:00 +13°C° 1,3 mm 1 m/s 556 mmHg 81%
    13:00 +13°C° 1,4 mm 1 m/s 555 mmHg 82%
    14:00 +13°C° 1,4 mm 1 m/s 555 mmHg 82%
    15:00 +13°C° 1,4 mm 1 m/s 554 mmHg 83%
    16:00 +12°C° 1,6 mm 1 m/s 554 mmHg 85%
    17:00 +11°C° 1,6 mm 1 m/s 554 mmHg 87%
    18:00 +10°C° 1,6 mm 1 m/s 553 mmHg 89%
    19:00 +10°C° 2,1 mm 1 m/s 554 mmHg 88%
    20:00 +10°C° 2,1 mm 1 m/s 554 mmHg 87%
    21:00 +10°C° 2,1 mm 1 m/s 555 mmHg 87%
    22:00 +10°C° 2,1 mm 1 m/s 554 mmHg 87%
    23:00 +9°C° 2,1 mm 2 m/s 554 mmHg 87%

    25 Outubro, Quarta-feira

    Tempo Temperatura Precipitação Vento Pressão Humidade
    00:00 +8°C° 2,1 mm 2 m/s 554 mmHg 87%
    01:00 +8°C° 1,7 mm 2 m/s 554 mmHg 86%
    02:00 +8°C° 1,7 mm 2 m/s 553 mmHg 86%
    03:00 +8°C° 1,7 mm 2 m/s 553 mmHg 85%
    04:00 +8°C° 1,4 mm 2 m/s 553 mmHg 85%
    05:00 +8°C° 1,4 mm 2 m/s 554 mmHg 85%
    06:00 +8°C° 1,4 mm 2 m/s 554 mmHg 84%
    07:00 +9°C° 1 mm 2 m/s 555 mmHg 84%
    08:00 +9°C° 1 mm 2 m/s 555 mmHg 84%
    09:00 +11°C° 1 mm 1 m/s 556 mmHg 83%
    10:00 +12°C° 0,9 mm 2 m/s 556 mmHg 81%
    11:00 +12°C° 0,9 mm 2 m/s 556 mmHg 79%
    12:00 +13°C° 0,9 mm 2 m/s 556 mmHg 77%
    13:00 +13°C° 0,6 mm 2 m/s 556 mmHg 78%
    14:00 +13°C° 0,6 mm 2 m/s 555 mmHg 79%
    15:00 +12°C° 0,6 mm 2 m/s 555 mmHg 80%
    16:00 +12°C° 0,3 mm 2 m/s 555 mmHg 83%
    17:00 +10°C° 0,3 mm 2 m/s 555 mmHg 85%
    18:00 +10°C° 0,3 mm 1 m/s 554 mmHg 87%
    19:00 +9°C° 0,2 mm 1 m/s 555 mmHg 86%
    20:00 +9°C° 0,2 mm 1 m/s 555 mmHg 85%
    21:00 +9°C° 0,2 mm 1 m/s 555 mmHg 84%
    22:00 +9°C° 0,2 mm 1 m/s 555 mmHg 84%
    23:00 +9°C° 0,2 mm 1 m/s 555 mmHg 85%
    Mostrar mais